Date String (YYYY-MM-DD hh:mm:ss) UTC,Instrument flags,Ambient pressure (hPa),Sample flow (lpm),Bypass flow (lpm),Sample temperature (°C),Ambient temperature (°C),ASC tube jacket temperature (°C),LED temperature (°C),Box temperature (°C),Sample RH (%),Span deviation,Mass concentration (μg/m³),Mass concentration (μg/m³),Mass concentration (μg/m³)
DateTimeUTC,F1_M11,P_M11,Q1_M11,Q2_M11,T1_M11,T2_M11,T3_M11,T4_M11,T5_M11,U1_M11,ZSPAN_M11,X0_M11,X2_M11,X1_M11
2023-02-20 10:00:00,,0814.9,5.01,0.00,22.1,20.3,00.0,31.0,23.7,09.4,0000.0,0002.13,0001.16,0000.76
2023-02-20 10:01:00,,0815.0,4.99,0.00,22.0,20.3,00.0,31.0,23.7,09.4,0000.0,0002.12,0001.17,0000.76
2023-02-20 10:02:00,,0814.9,5.00,0.00,22.0,20.2,00.0,31.0,23.7,09.4,0000.0,0002.15,0001.20,0000.76
2023-02-20 10:03:00,,0814.9,5.00,0.00,22.0,20.1,00.0,31.0,23.6,09.3,0000.0,0002.28,0001.24,0000.77
2023-02-20 10:04:00,,0814.9,5.00,0.00,21.9,20.0,00.0,30.9,23.5,09.4,0000.0,0002.51,0001.29,0000.78
2023-02-20 10:05:00,,0814.9,5.00,0.00,21.9,20.0,00.0,30.9,23.5,09.4,0000.0,0002.55,0001.31,0000.78
2023-02-20 10:06:00,,0814.9,5.00,0.00,21.9,20.0,00.0,30.9,23.6,09.4,0000.0,0002.74,0001.36,0000.78
2023-02-20 10:07:00,,0814.8,5.00,0.00,21.9,20.1,00.0,30.9,23.6,09.4,0000.0,0002.84,0001.38,0000.78
2023-02-20 10:08:00,,0814.9,4.99,0.00,21.9,20.1,00.0,30.9,23.6,09.3,0000.0,0002.88,0001.40,0000.78
2023-02-20 10:09:00,,0814.9,5.00,0.00,21.9,20.1,00.0,30.9,23.6,09.4,0000.0,0002.93,0001.40,0000.77
2023-02-20 10:10:00,,0814.9,5.00,0.00,21.9,20.6,00.0,30.8,23.7,09.4,0000.0,0003.21,0001.42,0000.76
2023-02-20 10:11:00,,0815.1,4.99,0.00,22.0,22.0,00.0,30.8,24.0,09.3,0000.0,0004.59,0001.49,0000.76
2023-02-20 10:12:00,,0815.0,4.96,0.00,22.2,23.2,00.0,30.8,24.3,09.2,0000.0,0005.04,0001.51,0000.76
2023-02-20 10:13:00,,0815.0,4.99,0.00,22.3,23.1,00.0,30.9,24.4,09.1,0000.0,0004.91,0001.45,0000.76
2023-02-20 10:14:00,,0814.9,5.01,0.00,22.3,22.6,00.0,30.9,24.3,09.1,0000.0,0005.55,0001.48,0000.76
2023-02-20 10:15:00,,0814.8,5.01,0.00,22.3,22.1,00.0,31.0,24.2,09.1,0000.0,0006.40,0001.48,0000.77
2023-02-20 10:16:00,,0814.8,5.00,0.00,22.3,21.8,00.0,31.0,24.2,09.2,0000.0,0006.52,0001.52,0000.78
2023-02-20 10:17:00,,0814.9,5.02,0.00,22.3,21.4,00.0,31.1,24.1,09.2,0000.0,0006.68,0001.54,0000.78
2023-02-20 10:18:00,,0814.9,4.99,0.00,22.3,21.1,00.0,31.1,24.0,09.3,0000.0,0007.57,0001.54,0000.79
2023-02-20 10:19:00,,0814.9,5.01,0.00,22.3,20.9,00.0,31.1,24.0,09.3,0000.0,0007.49,0001.53,0000.79
2023-02-20 10:20:00,,0814.9,5.00,0.00,22.3,20.8,00.0,31.1,24.0,09.4,0000.0,0007.57,0001.59,0000.81
2023-02-20 10:21:00,,0815.0,5.00,0.00,22.3,20.7,00.0,31.1,24.0,09.3,0000.0,0007.44,0001.56,0000.82
2023-02-20 10:22:00,,0815.1,5.01,0.00,22.2,20.6,00.0,31.1,24.0,09.4,0000.0,0006.43,0001.55,0000.83
2023-02-20 10:23:00,,0815.0,4.99,0.00,22.2,20.6,00.0,31.1,23.9,09.3,0000.0,0006.04,0001.58,0000.83
2023-02-20 10:24:00,,0815.0,5.01,0.00,22.2,20.5,00.0,31.1,23.9,09.4,0000.0,0006.08,0001.61,0000.83
2023-02-20 10:25:00,,0814.9,5.01,0.00,22.2,20.4,00.0,31.1,23.8,09.4,0000.0,0005.37,0001.55,0000.82
2023-02-20 10:26:00,,0815.1,5.01,0.00,22.2,20.3,00.0,31.1,23.8,09.4,0000.0,0004.36,0001.52,0000.81
2023-02-20 10:27:00,,0815.2,5.01,0.00,22.1,20.3,00.0,31.1,23.8,09.4,0000.0,0004.29,0001.50,0000.80
2023-02-20 10:28:00,,0815.0,5.01,0.00,22.1,20.3,00.0,31.1,23.8,09.6,0000.0,0003.97,0001.47,0000.81
2023-02-20 10:29:00,,0814.8,4.99,0.00,22.1,20.3,00.0,31.1,23.8,09.4,0000.0,0002.90,0001.46,0000.81
2023-02-20 10:30:00,,0815.0,5.00,0.00,22.1,20.3,00.0,31.0,23.8,09.4,0000.0,0002.98,0001.45,0000.80
2023-02-20 10:31:00,,0814.8,5.01,0.00,22.1,20.9,00.0,31.0,23.9,09.4,0000.0,0002.93,0001.40,0000.78
2023-02-20 10:32:00,,0814.9,5.00,0.00,22.2,22.2,00.0,30.9,24.2,09.4,0000.0,0002.91,0001.41,0000.78
2023-02-20 10:33:00,,0814.9,4.98,0.00,22.4,23.2,00.0,31.0,24.5,09.3,0000.0,0002.76,0001.38,0000.76
2023-02-20 10:34:00,,0814.9,5.03,0.00,22.5,23.0,00.0,31.0,24.5,09.3,0000.0,0002.85,0001.38,0000.74
2023-02-20 10:35:00,,0814.9,4.98,0.00,22.5,22.4,00.0,31.1,24.4,09.2,0000.0,0002.85,0001.35,0000.73
2023-02-20 10:36:00,,0814.9,5.00,0.00,22.5,22.0,00.0,31.2,24.3,09.2,0000.0,0002.88,0001.37,0000.73
2023-02-20 10:37:00,,0815.0,5.01,0.00,22.5,21.7,00.0,31.2,24.3,09.3,0000.0,0002.78,0001.34,0000.73
2023-02-20 10:38:00,,0814.9,5.01,0.00,22.5,21.4,00.0,31.2,24.3,09.2,0000.0,0002.71,0001.31,0000.74
2023-02-20 10:39:00,,0814.9,4.99,0.00,22.4,21.3,00.0,31.2,24.2,09.3,0000.0,0002.76,0001.33,0000.73
2023-02-20 10:40:00,,0814.9,5.00,0.00,22.4,21.1,00.0,31.3,24.2,09.3,0000.0,0003.03,0001.38,0000.74
2023-02-20 10:41:00,,0815.0,5.00,0.00,22.4,21.0,00.0,31.3,24.2,09.4,0000.0,0003.15,0001.45,0000.76
2023-02-20 10:42:00,,0814.9,5.00,0.00,22.4,20.9,00.0,31.3,24.1,09.4,0000.0,0004.12,0001.53,0000.78
2023-02-20 10:43:00,,0815.0,5.00,0.00,22.4,20.8,00.0,31.3,24.1,09.3,0000.0,0004.18,0001.56,0000.79
2023-02-20 10:44:00,,0814.6,5.02,0.00,22.4,20.7,00.0,31.3,24.1,09.3,0000.0,0004.58,0001.58,0000.81
2023-02-20 10:45:00,,0814.4,5.00,0.00,22.3,20.6,00.0,31.3,24.1,09.4,0000.0,0005.47,0001.58,0000.84
2023-02-20 10:46:00,,0814.4,5.00,0.00,22.3,20.5,00.0,31.3,24.0,09.3,0000.0,0005.46,0001.60,0000.86
2023-02-20 10:47:00,,0815.1,5.00,0.00,22.3,20.4,00.0,31.2,23.9,09.3,0000.0,0006.46,0001.65,0000.88
2023-02-20 10:48:00,,0815.0,5.00,0.00,22.2,20.4,00.0,31.2,23.9,09.4,0000.0,0006.73,0001.69,0000.89
2023-02-20 10:49:00,,0814.8,5.00,0.00,22.2,20.3,00.0,31.2,23.9,09.5,0000.0,0007.23,0001.77,0000.89
2023-02-20 10:50:00,,0814.7,5.00,0.00,22.2,20.3,00.0,31.2,23.8,09.5,0000.0,0007.35,0001.80,0000.90
2023-02-20 10:51:00,,0814.5,4.99,0.00,22.1,20.2,00.0,31.2,23.8,09.6,0000.0,0007.43,0001.81,0000.90
2023-02-20 10:52:00,,0814.8,5.00,0.00,22.1,20.2,00.0,31.2,23.7,09.5,0000.0,0007.74,0001.77,0000.89
2023-02-20 10:53:00,,0815.1,5.01,0.00,22.1,20.1,00.0,31.1,23.7,09.5,0000.0,0007.48,0001.74,0000.89
2023-02-20 10:54:00,,0815.0,5.01,0.00,22.1,20.9,00.0,31.1,23.9,09.6,0000.0,0007.56,0001.72,0000.90
2023-02-20 10:55:00,,0814.9,4.97,0.00,22.2,22.2,00.0,31.0,24.1,09.4,0000.0,0007.45,0001.76,0000.88
2023-02-20 10:56:00,,0814.7,5.03,0.00,22.3,23.0,00.0,31.0,24.4,09.4,0000.0,0006.63,0001.77,0000.87
2023-02-20 10:57:00,,0815.0,4.99,0.00,22.4,22.6,00.0,31.1,24.4,09.4,0000.0,0007.53,0001.76,0000.87
2023-02-20 10:58:00,,0814.9,4.99,0.00,22.4,22.1,00.0,31.2,24.3,09.5,0000.0,0007.27,0001.76,0000.87
2023-02-20 10:59:00,,0815.1,5.00,0.00,22.4,21.7,00.0,31.2,24.2,09.5,0000.0,0007.67,0001.78,0000.87
